Showing default

OPS 9348 (IDSCS 26), 3291

Orbit data source: Space-Track

OPS 9348 (IDSCS 26), 3291 is a payload satellite owned by SAMSO (US) in GEO that was launched on Thu, 13 Jun 1968 UTC via a TITAN IIIC launch vehicle from the Air Force Eastern Test Range (AFETR). Payload-class satellites include a variety of spacecraft equipped with specific instruments for various scientific and technological missions. These include communications satellites like Starlink; space stations such as the ISS; scientific satellites like the Hubble; Earth observation satellites from companies like Planet Labs, Umbra, and HawkEye 360; GPS; miniature CubeSats for education and research; and military/defense satellites.

Not visible in the next 10 days
Identifier
3291, 1968-050H
Orbit
GEO
Country
Flag of USUS
Related business
Manufacturer
Philco-Ford
Mission
Non-operational spacecraft
Bus & Motor
IDCSP, Unknown motor
Mass
45 kg wet, 45 kg dry
Launch date (UTC)
1968-06-13 (57 years ago)
Launch vehicle
TITAN IIIC
Launch site
Air Force Eastern Test Range (AFETR)
Object type
Payload
Rocket body
Debris
Shape & HBR
Unknown
Radar Cross Section
Medium (>0.1 m² and <1 m²)

Expand to show TLE details & history
Last TLE update: 23 hours ago

TLE from 23 hours ago
0 OPS 9348 (IDSCS 26)
1  3291U 68050H   25306.51427196 -.00000113  00000-0  00000+0 0  9990
2  3291   6.4387  56.9347 0076053 128.9706 134.1725  1.06767861223601
Epoch: 2025-11-02T12:20Z
TLE epoch observation values (Epoch: 2025-11-02T12:20:33.097Z)
Latitude
-6.39041°
Longitude
93.46522°
Altitude
34,273.96 km
Speed
3.123 km/s
True Right ascension
21h 22m 31s
True Declination
-6° 23' 02"
Sunlit
Object was in daylight at epoch
Visualization orbit readout
Latitude
Unknown
Longitude
Unknown
Altitude
Unknown
Speed
Unknown
Apparent Right ascension
Unknown
Apparent Declination
Unknown
Sunlit
N/A
Visualization observer readout
Local Sidereal Time
06:46:59
Azimuth
Unknown
Elevation
Unknown
Doppler factor
Unknown
Orbital elements
Apogee altitude
34,367.114 km
Perigee altitude
33,752.032 km
Semi-major axis
40,437.71 km
Eccentricity
0.00761
Inclination
6.4387°
RAAN
56.9347°
Arg. of periapsis
128.9706°
True anomaly
134.79345°
Mean anomaly
134.1725°
Eccentric anomaly
134.48339°
Mean motion
0.26691 °/min
Orbital period
1,348.77 mins
BSTAR
0
Loading maneuver chart data...
Computing Atmospheric mass density...
Loading historical data...
Loading historical data...
Loading historical data...
Loading historical data...
Loading historical data...
Loading historical data...
Loading historical data...

Documentation

Showing up to 5 results
|